Campo, CA

5:48 AM PDT on May 27, 2017 (GMT -0700)
Campo

Weather History for KCZZ - November, 2010

Change the Weather History Date:

Thursday, November 11, 2010

  Actual Average Record
Temperature  
Mean Temperature 45 °F 54 °F  
Max Temperature 60 °F 72 °F 89 °F (1996)
Min Temperature 29 °F 37 °F 26 °F (1965)
Degree Days  
Heating Degree Days 20 11  
Month to date heating degree days 114 104  
Since 1 July heating degree days 446 314  
Cooling Degree Days 0 0  
Month to date cooling degree days 0 0  
Year to date cooling degree days 655 839  
Moisture  
Dew Point 25 °F    
Average Humidity 62    
Maximum Humidity 100    
Minimum Humidity 23    
Precipitation  
Precipitation 0.00 in 0.03 in 0.87 in (1949)
Month to date precipitation 0.03 0.31  
Year to date precipitation 15.75 12.64  
Since 1 July precipitation 3.16  
Sea Level Pressure  
Sea Level Pressure 30.08 in    
Wind  
Wind Speed 13 mph (NE)    
Max Wind Speed 32 mph    
Max Gust Speed 41 mph    
T = Trace of Precipitation, MM = Missing Value Source: NWS Daily Summary

Daily Weather History Graph

Daily Weather History Graph

Search for Another Location

Airport or City:

Trip Planner

Search our weather history database for the weather conditions in past years. The results will help you decide how hot, cold, wet, or windy it might be!

Date:

Astronomy

Nov. 11, 2010 Rise Set
Actual Time 6:12 AM PST 4:47 PM PST
Civil Twilight 5:46 AM PST 5:13 PM PST
Nautical Twilight 5:16 AM PST 5:42 PM PST
Astronomical Twilight 4:47 AM PST 6:11 PM PST
Moon 11:12 AM PST (11/11) 9:58 PM PST (11/11)
Length of Visible Light 11h 26m
Length of Day
10h 35m
Waxing Crescent, 32% of the Moon is Illuminated
Nov 11
Waxing Crescent
Nov 13
First Quarter
Nov 21
Full
Nov 28
Last Quarter
Dec 5
New

Hourly Weather History & Observations

Time (PST) Temp. Windchill Dew Point Humidity Pressure Visibility Wind Dir Wind Speed Gust Speed Precip Events Conditions
12:52 AM 37.0 °F 32.4 °F 35.1 °F 93% 29.94 in - NE 5.8 mph - N/A   Unknown
1:52 AM 36.0 °F 33.3 °F 34.0 °F 93% 29.94 in - ENE 3.5 mph - N/A   Unknown
2:52 AM 37.0 °F 34.5 °F 35.1 °F 93% 29.95 in - ENE 3.5 mph - N/A   Unknown
3:52 AM 33.1 °F 28.7 °F 33.1 °F 100% 29.97 in - NE 4.6 mph - N/A   Unknown
4:52 AM 33.1 °F - 32.0 °F 96% 29.99 in - Calm Calm - N/A   Unknown
5:52 AM 30.9 °F 27.5 °F 30.0 °F 96% 30.01 in - Variable 3.5 mph - N/A   Unknown
6:52 AM 32.0 °F - 30.9 °F 96% 30.04 in - Calm Calm - N/A   Unknown
7:52 AM 52.0 °F - 28.9 °F 41% 30.04 in - ENE 16.1 mph 24.2 mph N/A   Unknown
8:52 AM 55.0 °F - 24.1 °F 30% 30.07 in - NE 23.0 mph 31.1 mph N/A   Unknown
9:52 AM 55.9 °F - 21.9 °F 27% 30.08 in - NE 27.6 mph 35.7 mph N/A   Unknown
10:52 AM 57.9 °F - 21.9 °F 25% 30.09 in - ENE 21.9 mph 33.4 mph N/A   Unknown
11:52 AM 57.9 °F - 21.0 °F 24% 30.08 in - NE 29.9 mph 38.0 mph N/A   Unknown
12:52 PM 59.0 °F - 21.9 °F 24% 30.08 in - NE 27.6 mph 32.2 mph N/A   Unknown
1:52 PM 59.0 °F - 23.0 °F 25% 30.09 in - ENE 21.9 mph 33.4 mph N/A   Unknown
2:52 PM 57.9 °F - 21.0 °F 24% 30.10 in - NE 24.2 mph 33.4 mph N/A   Unknown
3:52 PM 57.0 °F - 21.9 °F 26% 30.13 in - NE 17.3 mph 31.1 mph N/A   Unknown
4:52 PM 54.0 °F - 23.0 °F 30% 30.15 in - NNE 10.4 mph - N/A   Unknown
5:52 PM 52.0 °F - 23.0 °F 32% 30.17 in - NE 9.2 mph - N/A   Unknown
6:52 PM 48.9 °F - 21.9 °F 35% 30.18 in - NE 6.9 mph - N/A   Unknown
7:52 PM 52.0 °F - 21.0 °F 30% 30.16 in - NE 9.2 mph - N/A   Unknown
8:52 PM 54.0 °F - 19.9 °F 26% 30.17 in - NNE 8.1 mph 20.7 mph N/A   Unknown
9:52 PM 54.0 °F - 18.0 °F 24% 30.19 in - NE 18.4 mph 28.8 mph N/A   Unknown
10:52 PM 52.0 °F - 18.0 °F 26% 30.20 in - NE 12.7 mph 19.6 mph N/A   Unknown
11:52 PM 48.9 °F - 18.0 °F 29% 30.21 in - ENE 9.2 mph - N/A   Unknown